Tracking 31027 objects as of 19-Jul-2025
HD Live streaming from Space Station
objects crossing your sky now

STARLINK-30532

Track STARLINK-30532 now!
10-day predictions
STARLINK-30532 is classified as:


NORAD ID: 58070
Int'l Code: 2023-158V
Perigee: 565.2 km
Apogee: 567.2 km
Inclination: 43.0 °
Period: 95.8 minutes
Semi major axis: 6937 km
RCS: Unknown
Launch date: October 13, 2023
Source: United States (US)
Launch site: AIR FORCE EASTERN TEST RANGE (AFETR)
Your satellite tracking list
HAWK-4A
Track 1 satellite(s)




NASA's NSSDC Master Catalog

Two Line Element Set (TLE):
1 58070U 23158V   25199.41606425 -.00000494  00000-0 -21493-4 0  9995
2 58070  43.0022 223.0397 0001456 281.5686  78.4993 15.02532967 98299
Source of the keplerian elements: AFSPC